Location: Muenchen
(48.1800°N, 11.5800°E)
Time: 17:45:55
(UTC+02:00)

ISS - All Passes

Search period start: 30 June 2016 00:00
Search period end: 10 July 2016 00:00
Orbit: 402 x 403 km, 51.6° (Epoch: 30 June)

Date Brightness Start Highest point End Pass type
(mag) Time Alt. Az. Time Alt. Az. Time Alt. Az.
30 Jun - 08:17:13 10° SSE 08:18:54 13° SE 08:20:35 10° ESE daylight
30 Jun - 09:51:36 10° WSW 09:54:51 69° SSE 09:58:07 10° ENE daylight
30 Jun - 11:28:15 10° W 11:31:26 46° N 11:34:37 10° ENE daylight
30 Jun - 13:04:58 10° WNW 13:08:12 54° NNE 13:11:26 10° E daylight
30 Jun - 14:41:30 10° WNW 14:44:38 44° SSW 14:47:46 10° SE daylight
01 Jul - 08:59:02 10° SW 09:02:08 42° SSE 09:05:16 10° ENE daylight
01 Jul - 10:35:20 10° W 10:38:34 55° NNW 10:41:47 10° ENE daylight
01 Jul - 12:12:10 10° WNW 12:15:20 46° N 12:18:30 10° E daylight
01 Jul - 13:48:39 10° WNW 13:51:56 71° SSW 13:55:11 10° ESE daylight
01 Jul - 15:26:06 10° WSW 15:27:53 14° SW 15:29:40 10° S daylight
02 Jul - 08:06:43 10° SSW 08:09:29 26° SE 08:12:16 10° E daylight
02 Jul - 09:42:27 10° WSW 09:45:43 73° NNW 09:48:59 10° ENE daylight
02 Jul - 11:19:17 10° WNW 11:22:26 43° N 11:25:35 10° ENE daylight
02 Jul - 12:55:51 10° WNW 12:59:08 78° NNE 13:02:25 10° ESE daylight
02 Jul - 14:32:39 10° W 14:35:19 23° SW 14:37:58 10° SSE daylight
03 Jul - 07:14:51 10° S 07:16:53 16° SE 07:18:57 10° E daylight
03 Jul - 08:49:39 10° WSW 08:52:54 78° SSE 08:56:10 10° ENE daylight
03 Jul - 10:26:22 10° W 10:29:31 44° N 10:32:41 10° ENE daylight
03 Jul - 12:03:02 10° WNW 12:06:17 58° NNE 12:09:31 10° E daylight
03 Jul - 13:39:35 10° WNW 13:42:40 38° SSW 13:45:43 10° SE daylight
04 Jul - 07:56:59 10° SW 08:00:08 49° SSE 08:03:19 10° ENE daylight
04 Jul - 09:33:24 10° W 09:36:36 51° NNW 09:39:49 10° ENE daylight
04 Jul - 11:10:12 10° WNW 11:13:23 47° N 11:16:34 10° E daylight
04 Jul - 12:46:41 10° WNW 12:49:56 62° SSW 12:53:10 10° SE daylight
04 Jul - 14:24:32 10° WSW 14:25:50 12° SW 14:27:06 10° SSW daylight
05 Jul - 07:04:31 10° SSW 07:07:26 30° SE 07:10:20 10° E daylight
05 Jul - 08:40:27 10° W 08:43:42 66° NNW 08:46:59 10° ENE daylight
05 Jul - 10:17:18 10° WNW 10:20:27 43° N 10:23:36 10° ENE daylight
05 Jul - 11:53:50 10° WNW 11:57:08 87° NNE 12:00:23 10° ESE daylight
05 Jul - 13:30:46 10° W 13:33:14 20° SW 13:35:42 10° S daylight
06 Jul - 06:12:27 10° S 06:14:46 18° SE 06:17:06 10° E daylight
06 Jul - 07:47:35 10° WSW 07:50:51 87° SSE 07:54:07 10° ENE daylight
06 Jul - 09:24:20 10° WNW 09:27:30 43° N 09:30:39 10° ENE daylight
06 Jul - 11:00:59 10° WNW 11:04:15 63° NNE 11:07:29 10° E daylight
06 Jul - 12:37:35 10° W 12:40:34 33° SW 12:43:32 10° SSE daylight
07 Jul - 05:21:25 10° SSE 05:22:11 11° SE 05:22:56 10° ESE daylight
07 Jul - 06:54:49 10° SW 06:58:02 56° SSE 07:01:15 10° ENE daylight
07 Jul - 08:31:21 10° W 08:34:32 49° N 08:37:44 10° ENE daylight
07 Jul - 10:08:06 10° WNW 10:11:19 50° N 10:14:31 10° E daylight
07 Jul - 11:44:37 10° WNW 11:47:49 54° SSW 11:51:01 10° SE daylight
08 Jul - 06:02:15 10° SSW 06:05:15 34° SE 06:08:16 10° ENE daylight
08 Jul - 07:38:21 10° W 07:41:36 61° NNW 07:44:50 10° ENE daylight
08 Jul - 09:15:11 10° WNW 09:18:21 44° N 09:21:30 10° ENE daylight
08 Jul - 10:51:42 10° WNW 10:54:59 84° SSW 10:58:15 10° ESE daylight
08 Jul - 12:28:47 10° W 12:31:02 17° SW 12:33:16 10° S daylight
09 Jul - 05:10:01 10° SSW 05:12:33 21° SE 05:15:04 10° E daylight
09 Jul - 06:45:24 10° WSW 06:48:41 84° NNW 06:51:58 10° ENE daylight
09 Jul - 08:22:12 10° WNW 08:25:21 43° N 08:28:30 10° ENE daylight
09 Jul - 09:58:49 10° WNW 10:02:05 68° NNE 10:05:20 10° ESE daylight
09 Jul - 11:35:28 10° W 11:38:21 28° SW 11:41:12 10° SSE daylight
